Stündliche Wetter Warszawka

Heute, 28 Oktober, Mittwoch

Zeit Temperatur Niederschläge Wind Luftdruck Luftfeuchtigkeit
00:00 +12°C° 0 mm 1 m/S 737 mmHg 92%
01:00 +11°C° 0 mm 1 m/S 738 mmHg 93%
02:00 +11°C° 0 mm 1 m/S 738 mmHg 93%
03:00 +10°C° 0 mm 1 m/S 738 mmHg 94%
04:00 +9°C° 0 mm 0 m/S 737 mmHg 94%
05:00 +10°C° 0 mm 1 m/S 738 mmHg 94%
06:00 +10°C° 0 mm 1 m/S 738 mmHg 94%
07:00 +9°C° 0 mm 2 m/S 738 mmHg 95%
08:00 +10°C° 0 mm 2 m/S 738 mmHg 89%
09:00 +13°C° 0 mm 2 m/S 738 mmHg 84%
10:00 +14°C° 0 mm 2 m/S 738 mmHg 79%
11:00 +15°C° 0 mm 2 m/S 738 mmHg 75%
12:00 +16°C° 0 mm 2 m/S 738 mmHg 71%
13:00 +17°C° 0 mm 2 m/S 738 mmHg 68%
14:00 +16°C° 0 mm 2 m/S 738 mmHg 70%
15:00 +15°C° 0 mm 2 m/S 738 mmHg 73%
16:00 +15°C° 0 mm 1 m/S 738 mmHg 76%
17:00 +14°C° 0 mm 2 m/S 738 mmHg 79%
18:00 +13°C° 0 mm 2 m/S 738 mmHg 81%
19:00 +12°C° 0 mm 2 m/S 738 mmHg 84%
20:00 +12°C° 0 mm 2 m/S 738 mmHg 84%
21:00 +10°C° 0 mm 2 m/S 738 mmHg 84%
22:00 +10°C° 0 mm 3 m/S 738 mmHg 83%
23:00 +9°C° 0 mm 3 m/S 739 mmHg 84%

Morgen, 29 Oktober, Donnerstag

Zeit Temperatur Niederschläge Wind Luftdruck Luftfeuchtigkeit
00:00 +9°C° 0 mm 3 m/S 739 mmHg 84%
01:00 +9°C° 0 mm 3 m/S 739 mmHg 84%
02:00 +9°C° 0 mm 3 m/S 738 mmHg 85%
03:00 +8°C° 0 mm 2 m/S 738 mmHg 87%
04:00 +8°C° 0 mm 2 m/S 738 mmHg 88%
05:00 +8°C° 0 mm 2 m/S 738 mmHg 86%
06:00 +9°C° 0 mm 3 m/S 738 mmHg 85%
07:00 +9°C° 0 mm 3 m/S 738 mmHg 84%
08:00 +10°C° 0 mm 3 m/S 738 mmHg 79%
09:00 +11°C° 0 mm 3 m/S 738 mmHg 74%
10:00 +12°C° 0 mm 4 m/S 738 mmHg 68%
11:00 +13°C° 0 mm 4 m/S 738 mmHg 66%
12:00 +13°C° 0 mm 5 m/S 738 mmHg 64%
13:00 +14°C° 0 mm 6 m/S 737 mmHg 61%
14:00 +13°C° 0.1 mm 5 m/S 737 mmHg 65%
15:00 +12°C° 0.1 mm 5 m/S 737 mmHg 69%
16:00 +10°C° 0.1 mm 5 m/S 737 mmHg 73%
17:00 +10°C° 0.3 mm 5 m/S 737 mmHg 75%
18:00 +9°C° 0.3 mm 6 m/S 738 mmHg 78%
19:00 +9°C° 0.3 mm 6 m/S 738 mmHg 80%
20:00 +8°C° 0 mm 6 m/S 738 mmHg 80%
21:00 +7°C° 0 mm 6 m/S 739 mmHg 81%
22:00 +5°C° 0 mm 6 m/S 739 mmHg 82%
23:00 +6°C° 0 mm 5 m/S 740 mmHg 83%

übermorgen, 30 Oktober, Freitag

Zeit Temperatur Niederschläge Wind Luftdruck Luftfeuchtigkeit
00:00 +5°C° 0 mm 5 m/S 740 mmHg 84%
01:00 +5°C° 0 mm 4 m/S 740 mmHg 85%
02:00 +5°C° 0 mm 4 m/S 741 mmHg 86%
03:00 +3°C° 0 mm 5 m/S 741 mmHg 87%
04:00 +3°C° 0 mm 5 m/S 742 mmHg 88%
05:00 +4°C° 0 mm 4 m/S 742 mmHg 88%
06:00 +4°C° 0 mm 4 m/S 742 mmHg 89%
07:00 +4°C° 0 mm 3 m/S 742 mmHg 89%
08:00 +5°C° 0 mm 3 m/S 742 mmHg 82%
09:00 +6°C° 0 mm 4 m/S 742 mmHg 75%
10:00 +8°C° 0 mm 4 m/S 742 mmHg 68%
11:00 +8°C° 0 mm 4 m/S 741 mmHg 65%
12:00 +10°C° 0 mm 4 m/S 741 mmHg 62%
13:00 +10°C° 0 mm 4 m/S 740 mmHg 59%
14:00 +8°C° 0.7 mm 4 m/S 740 mmHg 69%
15:00 +7°C° 0.7 mm 4 m/S 739 mmHg 79%
16:00 +6°C° 0.7 mm 4 m/S 739 mmHg 89%
17:00 +7°C° 1.9 mm 4 m/S 739 mmHg 91%
18:00 +7°C° 1.9 mm 4 m/S 738 mmHg 93%
19:00 +8°C° 1.9 mm 4 m/S 738 mmHg 95%
20:00 +8°C° 1.6 mm 4 m/S 738 mmHg 95%
21:00 +10°C° 1.6 mm 4 m/S 738 mmHg 95%
22:00 +9°C° 1.6 mm 5 m/S 738 mmHg 95%
23:00 +10°C° 0.4 mm 4 m/S 739 mmHg 94%

31 Oktober, Samstag

Zeit Temperatur Niederschläge Wind Luftdruck Luftfeuchtigkeit
00:00 +8°C° 0.4 mm 4 m/S 739 mmHg 93%
01:00 +7°C° 0.4 mm 4 m/S 739 mmHg 92%
02:00 +7°C° 0 mm 4 m/S 740 mmHg 92%
03:00 +7°C° 0 mm 3 m/S 741 mmHg 91%
04:00 +5°C° 0 mm 3 m/S 742 mmHg 91%
05:00 +5°C° 0 mm 3 m/S 742 mmHg 90%
06:00 +6°C° 0 mm 2 m/S 743 mmHg 89%
07:00 +6°C° 0 mm 2 m/S 743 mmHg 88%
08:00 +8°C° 0 mm 1 m/S 744 mmHg 83%
09:00 +9°C° 0 mm 1 m/S 744 mmHg 77%
10:00 +10°C° 0 mm 1 m/S 745 mmHg 72%
11:00 +10°C° 0 mm 1 m/S 745 mmHg 68%
12:00 +11°C° 0 mm 1 m/S 745 mmHg 65%
13:00 +11°C° 0 mm 1 m/S 745 mmHg 61%
14:00 +11°C° 0 mm 1 m/S 745 mmHg 65%
15:00 +10°C° 0 mm 1 m/S 745 mmHg 68%
16:00 +9°C° 0 mm 1 m/S 745 mmHg 71%
17:00 +9°C° 0 mm 1 m/S 745 mmHg 75%
18:00 +8°C° 0 mm 1 m/S 745 mmHg 78%
19:00 +7°C° 0 mm 1 m/S 746 mmHg 82%
20:00 +7°C° 0 mm 1 m/S 746 mmHg 84%
21:00 +6°C° 0 mm 2 m/S 746 mmHg 87%
22:00 +5°C° 0 mm 2 m/S 746 mmHg 89%
23:00 +5°C° 0 mm 2 m/S 746 mmHg 91%

1 November, Sonntag

Zeit Temperatur Niederschläge Wind Luftdruck Luftfeuchtigkeit
00:00 +5°C° 0 mm 2 m/S 746 mmHg 92%
01:00 +4°C° 0 mm 2 m/S 746 mmHg 93%
02:00 +4°C° 0 mm 2 m/S 745 mmHg 93%
03:00 +4°C° 0 mm 2 m/S 745 mmHg 93%
04:00 +3°C° 0 mm 3 m/S 745 mmHg 93%
05:00 +3°C° 0 mm 3 m/S 745 mmHg 93%
06:00 +3°C° 0 mm 2 m/S 745 mmHg 92%
07:00 +3°C° 0 mm 2 m/S 745 mmHg 92%
08:00 +4°C° 0 mm 3 m/S 745 mmHg 85%
09:00 +5°C° 0 mm 3 m/S 745 mmHg 78%
10:00 +8°C° 0 mm 3 m/S 745 mmHg 71%
11:00 +9°C° 0 mm 3 m/S 744 mmHg 68%
12:00 +10°C° 0 mm 3 m/S 744 mmHg 64%
13:00 +11°C° 0 mm 3 m/S 744 mmHg 61%
14:00 +10°C° 0 mm 3 m/S 744 mmHg 64%
15:00 +9°C° 0 mm 3 m/S 743 mmHg 68%
16:00 +8°C° 0 mm 2 m/S 743 mmHg 71%
17:00 +8°C° 0 mm 2 m/S 743 mmHg 72%
18:00 +7°C° 0 mm 2 m/S 743 mmHg 72%
19:00 +7°C° 0 mm 2 m/S 743 mmHg 72%
20:00 +7°C° 0 mm 2 m/S 743 mmHg 73%
21:00 +7°C° 0 mm 2 m/S 743 mmHg 74%
22:00 +6°C° 0 mm 2 m/S 743 mmHg 75%
23:00 +6°C° 0 mm 2 m/S 743 mmHg 76%

2 November, Montag

Zeit Temperatur Niederschläge Wind Luftdruck Luftfeuchtigkeit
00:00 +6°C° 0 mm 2 m/S 743 mmHg 78%
01:00 +6°C° 0 mm 2 m/S 743 mmHg 80%
02:00 +6°C° 0 mm 2 m/S 743 mmHg 81%
03:00 +6°C° 0 mm 2 m/S 743 mmHg 82%
04:00 +6°C° 0 mm 2 m/S 743 mmHg 84%
05:00 +6°C° 0 mm 2 m/S 743 mmHg 83%
06:00 +6°C° 0 mm 2 m/S 743 mmHg 83%
07:00 +5°C° 0 mm 2 m/S 743 mmHg 83%
08:00 +7°C° 0 mm 2 m/S 743 mmHg 78%
09:00 +9°C° 0 mm 2 m/S 743 mmHg 73%
10:00 +10°C° 0 mm 2 m/S 743 mmHg 69%
11:00 +12°C° 0 mm 2 m/S 743 mmHg 67%
12:00 +13°C° 0 mm 2 m/S 743 mmHg 65%
13:00 +14°C° 0 mm 2 m/S 743 mmHg 63%
14:00 +13°C° 0 mm 2 m/S 743 mmHg 67%
15:00 +12°C° 0 mm 2 m/S 743 mmHg 70%
16:00 +10°C° 0 mm 2 m/S 743 mmHg 74%
17:00 +9°C° 0 mm 2 m/S 743 mmHg 76%
18:00 +9°C° 0 mm 2 m/S 743 mmHg 77%
19:00 +8°C° 0 mm 2 m/S 743 mmHg 79%
20:00 +8°C° 0 mm 2 m/S 743 mmHg 81%
21:00 +8°C° 0 mm 2 m/S 743 mmHg 83%
22:00 +7°C° 0 mm 2 m/S 743 mmHg 85%
23:00 +7°C° 0 mm 2 m/S 743 mmHg 86%
Mehr zeigen

Wir brauchen deine Erlaubnis

Meteoprog und unser Service Anbieter werden persönliche Daten aufbewahren, so wie Cookies, Geräte Bezeichnung oder ähnliche Technologien von deinem Gerät und Prozess, so wie Persönliche Daten Inhalte und Werbungen, genauso wie social Media und den Verkehr zu analysieren.

  • Aufbewahrung und/oder Zugang zu deiner Geräte Informationen.

    Cookies, Geräte Bezeichnung oder andere Informationen, können aufbewahrt oder Zugang zu deinem Gerät erhalten, für den Grund, der oben angegeben wird.

  • Personalisierte Werbung und Inhalte, Messungen, Einblick in das Publikum und Produkt Entwicklung.

    Werbungen und Inhalte können personalisiert werden, basierend auf ein Profil. Mehr Daten können besser personalisierte Werbungen und Inhalte hinzufügen. Werbung und Inhalte können gezeigt und gemessen werden. Einblicke über das Publikum, welche die Werbung gesehen haben und den Inhalt, können abgeleitet werden. So wie Daten können genutzt werden, um es zu verbessern oder die Benutzer Erfahrung zu verbessern das System und die Software.

Wenn du “Ich stimme zu” klickst, erlaubst du uns, die Cookies zu benutzen die Geräte Bezeichnung, den Web oder ähnliche Technologien zu benutzen. Deine Settings, können in deinem Gerät bei deinem Browser geändert werden.

Für den bestimmten Zweck, berechtigten Interessen beruhen darauf, mehr als auf den Inhalt. Du kannst mehr darüber in unseren Privaten und Cookie Politik lesen.